Location: B?dimalle
(17.1788°N, 80.5377°E)
Time: 10:55:29
(UTC+00:00)

Tiros 1 despin weight - Pass Details

Date: 24 February 2026
Orbit: 556 x 593 km, 48.2° (Epoch: 10 March)

Event Time Altitude Azimuth Distance (km) Brightness Sun altitude
Rises 05:46:55 0° 241° (WSW) 2,778 ? 59.0°
Reaches altitude 10° 05:49:23 10° 252° (WSW) 1,874 ? 59.3°
Maximum altitude 05:53:12 31° 315° (NW) 1,006 ? 59.8°
Drops below altitude 10° 05:56:59 10° 18° (NNE) 1,854 ? 60.2°
Sets 05:59:25 0° 29° (NNE) 2,744 ? 60.5°
